EW1296 Weather Reports


time (UTC)temp
C
wind
direction
speed
KPH
gust
KPH
rain 1hr
cm
rain 24hr
cm
rain mn
cm
humidity
%
barometer
mb
20260901014517 23 135 1.6 4.8 0.00 0.05 0.03 83 1018.7
20260901014017 23 158 1.6 4.8 0.00 0.05 0.03 83 1018.7
20260901013518 23 158 1.6 8.0 0.00 0.05 0.03 83 1018.7
20260901013037 23 135 1.6 4.8 0.00 0.05 0.03 83 1018.8
20260901012517 23 135 1.6 6.4 0.00 0.05 0.03 83 1018.8
20260901012017 23 135 1.6 8.0 0.00 0.05 0.03 83 1018.8
20260901011517 23 158 1.6 8.0 0.00 0.05 0.03 82 1018.8
20260901011018 23 180 1.6 8.0 0.00 0.05 0.03 82 1018.7
20260901010517 23 135 1.6 6.4 0.00 0.05 0.03 82 1018.6
20260901010057 23 135 3.2 12.9 0.00 0.05 0.03 82 1018.6
20260901005518 23 158 4.8 11.3 0.00 0.05 0.03 82 1018.5
20260901005017 23 158 3.2 8.0 0.00 0.05 0.03 82 1018.4
20260901004517 23 135 4.8 11.3 0.00 0.05 0.03 81 1018.5
20260901004017 23 158 3.2 9.7 0.00 0.05 0.03 81 1018.4
20260901003516 23 135 3.2 14.5 0.00 0.05 0.03 81 1018.4
20260901003018 23 158 1.6 6.4 0.00 0.05 0.03 81 1018.4
20260901002517 23 135 4.8 11.3 0.00 0.05 0.03 81 1018.4
20260901002017 23 135 3.2 6.4 0.00 0.05 0.03 80 1018.4
20260901001557 23 135 1.6 8.0 0.00 0.05 0.03 80 1018.5
20260901001017 23 158 1.6 6.4 0.00 0.05 0.03 80 1018.5
20260901000516 23 0.0 4.8 0.00 0.05 0.03 80 1018.4
20260901000017 23 158 1.6 9.7 0.00 0.05 0.03 80 1018.4
20260831235517 23 135 3.2 11.3 0.00 0.05 0.03 80 1018.4
20260831235016 23 135 3.2 6.4 0.00 0.05 0.03 80 1018.4
20260831234518 23 135 3.2 6.4 0.00 0.05 0.03 79 1018.5
20260831234018 23 135 1.6 8.0 0.00 0.05 0.03 79 1018.4
20260831233537 23 135 1.6 8.0 0.00 0.05 0.03 78 1018.5
20260831233017 23 135 1.6 6.4 0.00 0.05 0.03 78 1018.5
20260831232517 23 135 3.2 6.4 0.00 0.05 0.03 78 1018.5
20260831232017 23 113 3.2 8.0 0.00 0.05 0.03 78 1018.4
20260831231518 23 158 1.6 3.2 0.00 0.05 0.03 77 1018.5
20260831231038 23 135 1.6 8.0 0.00 0.05 0.03 77 1018.5
20260831230517 23 113 3.2 9.7 0.00 0.05 0.03 76 1018.5
20260831230016 24 135 1.6 4.8 0.00 0.05 0.03 76 1018.5
20260831225537 24 135 1.6 4.8 0.00 0.05 0.03 76 1018.5
20260831225017 24 135 1.6 6.4 0.00 0.05 0.03 76 1018.6
20260831224538 24 135 3.2 6.4 0.00 0.05 0.03 75 1018.5
20260831224018 24 158 3.2 6.4 0.00 0.05 0.03 74 1018.5
20260831223518 24 135 4.8 8.0 0.00 0.05 0.03 74 1018.5
20260831223016 24 135 3.2 9.7 0.00 0.05 0.03 74 1018.5
20260831222517 24 135 1.6 9.7 0.00 0.05 0.03 74 1018.5
20260831222017 24 135 1.6 6.4 0.00 0.05 0.03 74 1018.5
20260831221518 25 135 1.6 6.4 0.00 0.05 0.03 74 1018.6
20260831221018 25 135 3.2 8.0 0.00 0.05 0.03 73 1018.6
20260831220518 25 203 4.8 8.0 0.00 0.05 0.03 73 1018.7
20260831220016 25 203 1.6 4.8 0.00 0.05 0.03 73 1018.7
20260831215516 25 225 1.6 8.0 0.00 0.05 0.03 73 1018.7
20260831215036 25 180 4.8 11.3 0.00 0.05 0.03 73 1018.7
20260831214517 25 135 3.2 8.0 0.00 0.05 0.03 72 1018.7
20260831214017 25 135 3.2 8.0 0.00 0.05 0.03 72 1018.9
20260831213516 25 135 3.2 6.4 0.00 0.05 0.03 72 1018.8
20260831213016 25 135 1.6 6.4 0.00 0.05 0.03 72 1018.8
20260831212516 25 135 1.6 6.4 0.00 0.05 0.03 71 1018.9
20260831212017 25 135 1.6 6.4 0.00 0.05 0.03 71 1018.9
20260831211517 25 248 1.6 8.0 0.00 0.05 0.03 71 1019.0
20260831211018 25 135 3.2 9.7 0.00 0.05 0.03 71 1019.0
20260831210516 25 225 3.2 14.5 0.00 0.05 0.03 71 1019.0
20260831210017 25 225 4.8 14.5 0.00 0.05 0.03 71 1019.0
20260831205516 25 158 1.6 8.0 0.00 0.05 0.03 72 1018.9
20260831205016 25 113 4.8 11.3 0.00 0.05 0.03 71 1018.9
20260831204516 25 135 3.2 8.0 0.00 0.05 0.03 71 1018.8
20260831204016 25 248 1.6 6.4 0.00 0.05 0.03 71 1018.9
20260831203517 25 203 3.2 9.7 0.00 0.05 0.03 71 1019.0
20260831203016 25 135 3.2 12.9 0.00 0.05 0.03 71 1019.0
20260831202516 25 158 3.2 11.3 0.00 0.05 0.03 71 1019.0
20260831202016 25 135 3.2 12.9 0.00 0.05 0.03 72 1019.1
20260831201516 24 135 3.2 8.0 0.00 0.05 0.03 73 1019.2
20260831201016 24 158 1.6 12.9 0.00 0.05 0.03 73 1019.4
20260831200517 24 135 3.2 9.7 0.00 0.05 0.03 73 1019.4
20260831200018 24 135 1.6 6.4 0.00 0.05 0.03 73 1019.4
20260831195516 24 135 3.2 11.3 0.00 0.05 0.03 73 1019.5
20260831195056 25 158 1.6 9.7 0.00 0.05 0.03 72 1019.6
20260831194516 25 135 3.2 8.0 0.00 0.05 0.03 72 1019.6
20260831194038 25 225 4.8 12.9 0.00 0.05 0.03 71 1019.7
20260831193518 25 225 1.6 6.4 0.00 0.05 0.03 71 1019.7
20260831193037 26 158 3.2 9.7 0.00 0.05 0.03 69 1019.6
20260831192518 26 158 3.2 6.4 0.00 0.05 0.03 66 1019.7
20260831192016 26 248 3.2 6.4 0.00 0.05 0.03 64 1019.6
20260831191517 26 135 3.2 11.3 0.00 0.05 0.03 63 1019.7
20260831191016 26 158 1.6 9.7 0.00 0.05 0.03 62 1019.8
20260831190516 27 225 4.8 9.7 0.00 0.05 0.03 61 1019.9
20260831190017 27 225 4.8 12.9 0.00 0.05 0.03 60 1019.8
20260831185516 27 158 3.2 8.0 0.00 0.05 0.03 59 1019.8
20260831185017 27 225 4.8 14.5 0.00 0.05 0.03 59 1019.9
20260831184557 27 203 4.8 16.1 0.00 0.05 0.03 59 1019.9
20260831184017 27 158 3.2 17.7 0.00 0.05 0.03 59 1019.9
20260831183517 27 225 3.2 6.4 0.00 0.05 0.03 59 1019.8
20260831183016 27 248 3.2 11.3 0.00 0.05 0.03 58 1019.9
20260831182517 27 180 3.2 17.7 0.00 0.05 0.03 58 1019.8
20260831182036 27 225 4.8 14.5 0.00 0.05 0.03 58 1019.9
20260831181516 27 135 6.4 17.7 0.00 0.05 0.03 57 1019.9
20260831181017 28 203 4.8 17.7 0.00 0.05 0.03 58 1020.1
20260831180517 28 248 6.4 17.7 0.00 0.05 0.03 57 1020.0
20260831180056 28 203 3.2 14.5 0.00 0.05 0.03 57 1020.0
20260831175516 28 225 6.4 14.5 0.00 0.05 0.03 56 1020.1
20260831175016 28 135 4.8 16.1 0.00 0.05 0.03 55 1020.2
20260831174518 28 135 3.2 9.7 0.00 0.05 0.03 56 1020.1
20260831174036 28 135 4.8 11.3 0.00 0.05 0.03 56 1020.0
20260831173517 28 113 6.4 17.7 0.00 0.05 0.03 55 1019.9
20260831173016 28 113 4.8 12.9 0.00 0.05 0.03 55 1019.9
20260831172536 28 135 6.4 14.5 0.00 0.05 0.03 55 1020.0
20260831172017 28 135 3.2 9.7 0.00 0.05 0.03 55 1020.0
20260831171516 28 135 6.4 16.1 0.00 0.05 0.03 54 1020.1
20260831171016 28 225 3.2 12.9 0.00 0.05 0.03 55 1020.0
20260831170516 28 135 4.8 11.3 0.00 0.05 0.03 55 1020.0
20260831170016 28 225 3.2 12.9 0.00 0.05 0.03 56 1020.0
20260831165516 28 135 6.4 17.7 0.00 0.05 0.03 54 1020.0
20260831165017 28 68 3.2 11.3 0.00 0.05 0.03 55 1020.1
20260831164516 28 113 4.8 16.1 0.00 0.05 0.03 55 1020.1
20260831164037 28 225 3.2 11.3 0.00 0.05 0.03 57 1020.0
20260831163516 27 135 3.2 14.5 0.00 0.05 0.03 56 1020.1
20260831163017 28 158 3.2 16.1 0.00 0.05 0.03 56 1020.1
20260831162516 28 135 4.8 16.1 0.00 0.05 0.03 56 1020.3
20260831162016 28 135 1.6 9.7 0.00 0.05 0.03 57 1020.2
20260831161516 28 135 4.8 12.9 0.00 0.05 0.03 57 1020.3
20260831161016 27 270 1.6 4.8 0.00 0.05 0.03 59 1020.4
20260831160516 27 158 1.6 6.4 0.00 0.05 0.03 59 1020.3
20260831160016 27 158 3.2 9.7 0.00 0.05 0.03 58 1020.3
20260831155516 27 113 3.2 9.7 0.00 0.05 0.03 59 1020.3
20260831155017 26 135 3.2 9.7 0.00 0.05 0.03 60 1020.2
20260831154516 26 135 3.2 8.0 0.00 0.05 0.03 60 1020.2
20260831154037 26 135 3.2 11.3 0.00 0.05 0.03 60 1020.3
20260831153517 26 90 6.4 12.9 0.00 0.05 0.03 60 1020.3
20260831153016 26 113 3.2 12.9 0.00 0.05 0.03 62 1020.3
20260831152516 26 90 1.6 6.4 0.00 0.05 0.03 63 1020.3
20260831152016 26 90 3.2 11.3 0.00 0.05 0.03 63 1020.3
20260831151516 26 113 8.0 14.5 0.00 0.05 0.03 63 1020.4
20260831151036 26 135 1.6 12.9 0.00 0.05 0.03 65 1020.4
20260831150516 25 68 3.2 6.4 0.00 0.05 0.03 65 1020.5
20260831150016 25 23 1.6 9.7 0.00 0.05 0.03 65 1020.6
20260831145516 25 113 4.8 12.9 0.00 0.05 0.03 66 1020.6
20260831145016 25 135 4.8 11.3 0.00 0.05 0.03 67 1020.6
20260831144516 25 113 3.2 9.7 0.00 0.05 0.03 68 1020.5
20260831144016 24 113 3.2 11.3 0.00 0.05 0.03 68 1020.6
20260831143536 24 113 3.2 6.4 0.00 0.05 0.03 68 1020.6
20260831143016 24 68 3.2 8.0 0.00 0.05 0.03 68 1020.6
20260831142516 24 68 3.2 8.0 0.00 0.05 0.03 68 1020.6
20260831142016 24 135 3.2 6.4 0.00 0.05 0.03 68 1020.5
20260831141516 24 113 4.8 9.7 0.00 0.05 0.03 68 1020.6
20260831141015 24 68 3.2 8.0 0.00 0.05 0.03 69 1020.5
20260831140537 24 0.0 4.8 0.00 0.05 0.03 71 1020.4
20260831140015 23 315 1.6 6.4 0.00 0.05 0.03 71 1020.4
20260831135516 23 45 1.6 6.4 0.00 0.05 0.03 72 1020.4
20260831135037 23 45 1.6 4.8 0.00 0.05 0.03 72 1020.4
20260831134516 23 45 3.2 6.4 0.00 0.05 0.03 72 1020.4
20260831134015 23 45 1.6 6.4 0.00 0.05 0.03 72 1020.3
20260831133516 23 68 1.6 6.4 0.00 0.05 0.03 73 1020.3
20260831133016 23 23 3.2 9.7 0.00 0.05 0.03 72 1020.4
20260831132517 23 45 3.2 11.3 0.00 0.05 0.03 72 1020.3
20260831132016 23 23 3.2 11.3 0.00 0.05 0.03 73 1020.3
20260831131516 23 45 4.8 12.9 0.00 0.05 0.03 73 1020.4
20260831131016 23 45 3.2 9.7 0.00 0.05 0.03 73 1020.4
20260831130516 22 23 4.8 11.3 0.00 0.05 0.03 73 1020.3
20260831130015 22 23 1.6 6.4 0.00 0.05 0.03 74 1020.4
20260831125515 22 23 4.8 9.7 0.00 0.05 0.03 74 1020.4
20260831125016 22 23 1.6 6.4 0.00 0.05 0.03 74 1020.3
20260831124516 22 68 3.2 9.7 0.03 0.05 0.03 74 1020.3
20260831124016 22 68 1.6 11.3 0.03 0.05 0.03 75 1020.3
20260831123516 22 0.0 3.2 0.03 0.05 0.03 75 1020.3
20260831123016 22 45 1.6 6.4 0.03 0.05 0.03 75 1020.4
20260831122516 22 68 3.2 11.3 0.03 0.05 0.03 75 1020.3
20260831122016 22 23 4.8 11.3 0.03 0.05 0.03 75 1020.2
20260831121516 22 45 1.6 11.3 0.03 0.05 0.03 75 1020.2
20260831121016 22 23 3.2 8.0 0.03 0.05 0.03 75 1020.3
20260831120516 22 23 1.6 9.7 0.03 0.05 0.03 75 1020.3
20260831120015 22 45 1.6 6.4 0.03 0.05 0.03 75 1020.2
20260831115516 22 68 3.2 6.4 0.03 0.05 0.03 75 1020.3
20260831115016 22 68 4.8 12.9 0.03 0.05 0.03 76 1020.1
20260831114516 22 90 1.6 6.4 0.00 0.03 0.00 77 1020.1
20260831114016 22 135 3.2 14.5 0.00 0.03 0.00 77 1019.9
20260831113515 22 68 1.6 4.8 0.00 0.03 0.00 77 1019.9
20260831113015 22 68 1.6 6.4 0.00 0.03 0.00 77 1019.8
20260831112515 22 68 3.2 6.4 0.00 0.03 0.00 77 1019.7
20260831112037 22 68 3.2 8.0 0.00 0.03 0.00 77 1019.9
20260831111515 22 45 1.6 4.8 0.00 0.03 0.00 76 1020.0
20260831111016 22 68 1.6 6.4 0.00 0.03 0.00 77 1020.0
20260831110536 22 68 3.2 9.7 0.00 0.03 0.00 77 1020.0
20260831110015 22 90 1.6 8.0 0.00 0.03 0.00 77 1020.0
20260831105515 22 45 1.6 6.4 0.00 0.03 0.00 77 1019.9
20260831105016 22 45 1.6 4.8 0.00 0.03 0.00 77 1019.8
20260831104515 22 68 3.2 6.4 0.00 0.03 0.00 77 1019.7
20260831104016 22 45 1.6 8.0 0.00 0.03 0.00 78 1019.6
20260831103515 22 45 3.2 9.7 0.00 0.03 0.00 77 1019.5
20260831103015 22 23 3.2 11.3 0.00 0.03 0.00 77 1019.6
20260831102516 22 23 1.6 11.3 0.00 0.03 0.00 77 1019.4
20260831102015 22 90 1.6 11.3 0.00 0.03 0.00 76 1019.4
20260831101516 22 90 1.6 6.4 0.00 0.03 0.00 76 1019.3
20260831101015 22 90 3.2 8.0 0.00 0.03 0.00 76 1019.3
20260831100535 22 68 1.6 4.8 0.00 0.03 0.00 76 1019.3
20260831100015 22 23 1.6 6.4 0.00 0.03 0.00 76 1019.3
20260831095515 22 90 1.6 6.4 0.00 0.03 0.00 76 1019.3
20260831095037 22 45 3.2 8.0 0.00 0.03 0.00 77 1019.2
20260831094535 22 45 1.6 3.2 0.00 0.03 0.00 77 1019.1
20260831094015 22 0.0 4.8 0.00 0.03 0.00 78 1019.0
20260831093516 22 0.0 3.2 0.00 0.03 0.00 78 1019.0
20260831093037 22 0 1.6 6.4 0.00 0.03 0.00 77 1018.9
20260831092515 22 0.0 3.2 0.00 0.03 0.00 77 1018.9
20260831092015 22 0 1.6 4.8 0.00 0.03 0.00 77 1019.0
20260831091517 22 0 1.6 4.8 0.00 0.03 0.00 77 1019.0
20260831091015 22 338 1.6 8.0 0.00 0.03 0.00 77 1018.9
20260831090515 22 0 1.6 8.0 0.00 0.03 0.00 76 1018.8
20260831090016 22 0 1.6 4.8 0.00 0.03 0.00 76 1018.7
20260831085515 22 0 1.6 4.8 0.00 0.03 0.00 76 1018.7
20260831085015 22 0 1.6 4.8 0.00 0.03 0.00 76 1018.7
20260831084516 22 270 1.6 6.4 0.00 0.03 0.00 76 1018.6
20260831084015 22 23 1.6 4.8 0.00 0.03 0.00 76 1018.8
20260831083515 23 0 1.6 8.0 0.00 0.03 0.00 76 1018.9
20260831083017 23 338 1.6 6.4 0.00 0.03 0.00 75 1019.0
20260831082516 23 315 3.2 8.0 0.00 0.03 0.00 75 1018.9
20260831082015 23 0.0 4.8 0.00 0.03 0.00 75 1018.7
20260831081515 23 0 1.6 6.4 0.00 0.03 0.00 75 1018.8
20260831081018 23 45 3.2 6.4 0.00 0.03 0.00 75 1018.8
20260831080517 23 338 3.2 11.3 0.00 0.03 0.00 75 1018.8
20260831080017 23 338 1.6 12.9 0.00 0.03 0.00 75 1018.8
20260831075518 23 0 1.6 6.4 0.00 0.03 0.00 75 1018.7
20260831075017 23 0 3.2 12.9 0.00 0.03 0.00 75 1018.6
20260831074517 23 23 3.2 9.7 0.00 0.03 0.00 76 1018.7
20260831074018 23 338 1.6 6.4 0.00 0.03 0.00 77 1018.9
20260831073518 23 45 1.6 6.4 0.00 0.03 0.00 77 1018.9
20260831073018 23 23 1.6 8.0 0.00 0.03 0.00 77 1018.8
20260831072517 23 0 3.2 8.0 0.00 0.03 0.00 77 1018.7
20260831072017 23 0 1.6 4.8 0.00 0.03 0.00 77 1018.7
20260831071538 23 315 1.6 4.8 0.00 0.03 0.00 76 1018.8
20260831071017 23 315 1.6 4.8 0.00 0.03 0.00 76 1018.8
20260831070517 23 315 1.6 6.4 0.00 0.03 0.00 76 1018.8
20260831070018 23 338 1.6 4.8 0.00 0.03 0.00 76 1018.8
20260831065517 23 338 1.6 8.0 0.00 0.03 0.00 76 1018.8
20260831065017 23 0 3.2 8.0 0.00 0.03 0.00 76 1018.8
20260831064517 23 315 1.6 6.4 0.00 0.03 0.00 77 1018.9
20260831064017 23 338 1.6 4.8 0.00 0.03 0.00 77 1018.9
20260831063517 23 338 1.6 3.2 0.00 0.03 0.00 77 1019.0
20260831063037 23 338 1.6 4.8 0.00 0.03 0.00 77 1018.9
20260831062517 23 0 3.2 6.4 0.00 0.03 0.00 77 1018.8
20260831062018 23 315 3.2 6.4 0.00 0.03 0.00 77 1018.9
20260831061517 23 315 4.8 12.9 0.00 0.03 0.00 77 1019.1
20260831061017 23 338 3.2 12.9 0.00 0.03 0.00 77 1019.0
20260831060518 23 338 3.2 8.0 0.00 0.03 0.00 77 1019.0
20260831060017 23 338 3.2 12.9 0.00 0.03 0.00 77 1019.1
20260831055517 23 315 4.8 12.9 0.00 0.03 0.00 77 1019.0
20260831055017 23 315 4.8 16.1 0.00 0.03 0.00 76 1019.1
20260831054517 23 338 4.8 16.1 0.00 0.03 0.00 77 1019.1
20260831054017 23 315 4.8 12.9 0.00 0.03 0.00 77 1019.0
20260831053517 23 338 3.2 12.9 0.00 0.03 0.00 77 1018.9
20260831053017 23 315 4.8 11.3 0.00 0.03 0.00 77 1018.9
20260831052517 23 0 3.2 9.7 0.00 0.03 0.00 77 1018.9
20260831052037 23 315 3.2 12.9 0.00 0.03 0.00 77 1019.0
20260831051518 24 315 4.8 11.3 0.00 0.03 0.00 78 1019.1
20260831051017 24 293 4.8 9.7 0.00 0.03 0.00 78 1019.2
20260831050517 24 315 3.2 9.7 0.00 0.03 0.00 79 1019.2
20260831050017 24 315 3.2 8.0 0.00 0.03 0.00 79 1019.2
20260831045517 24 270 3.2 8.0 0.00 0.03 0.00 80 1019.2
20260831045017 24 338 3.2 6.4 0.00 0.03 0.00 80 1019.1
20260831044517 24 315 3.2 8.0 0.00 0.03 0.00 81 1019.0
20260831044018 24 338 3.2 6.4 0.00 0.03 0.00 81 1019.1
20260831043518 24 0 3.2 6.4 0.00 0.03 0.00 82 1019.1
20260831043017 24 338 3.2 8.0 0.00 0.03 0.00 82 1019.0
20260831042517 24 315 3.2 6.4 0.00 0.03 0.00 83 1019.0
20260831042017 24 315 3.2 12.9 0.00 0.03 0.00 83 1018.9
20260831041538 24 338 3.2 11.3 0.00 0.03 0.00 84 1018.8
20260831041017 24 315 1.6 6.4 0.00 0.03 0.00 84 1018.9
20260831040517 24 338 1.6 4.8 0.00 0.03 0.00 85 1018.8
20260831040017 24 315 3.2 6.4 0.00 0.03 0.03 85 1018.9
20260831035516 24 315 3.2 6.4 0.00 0.03 0.03 85 1018.8
20260831035015 24 315 3.2 6.4 0.00 0.03 0.03 86 1018.8
20260831034515 25 315 1.6 6.4 0.00 0.03 0.03 86 1018.8
20260831034015 25 315 3.2 4.8 0.00 0.03 0.03 85 1018.8
20260831033537 25 315 1.6 4.8 0.00 0.03 0.03 85 1018.8
20260831033016 25 315 1.6 4.8 0.00 0.03 0.03 85 1018.8
20260831032515 25 293 1.6 4.8 0.00 0.03 0.03 85 1018.8
20260831032016 25 293 1.6 4.8 0.00 0.03 0.03 85 1018.6
20260831031515 25 248 1.6 4.8 0.00 0.03 0.03 84 1018.6
20260831031036 25 248 1.6 3.2 0.00 0.03 0.03 84 1018.5
20260831030515 25 0.0 3.2 0.00 0.03 0.03 84 1018.5
20260831030015 25 0.0 3.2 0.00 0.03 0.03 84 1018.5
20260831025516 25 0.0 3.2 0.00 0.03 0.03 84 1018.6
20260831025015 25 0.0 4.8 0.03 0.03 0.03 84 1018.8
20260831024515 25 0 1.6 4.8 0.03 0.03 0.03 84 1019.0
20260831024015 25 338 3.2 9.7 0.03 0.03 0.03 85 1019.1
20260831023515 25 0 3.2 9.7 0.03 0.03 0.03 85 1019.0
20260831023037 25 338 3.2 9.7 0.03 0.03 0.03 85 1019.1
20260831022537 25 338 1.6 4.8 0.03 0.03 0.03 86 1019.2
20260831022017 25 338 1.6 4.8 0.03 0.03 0.03 85 1019.2
20260831021517 25 338 3.2 8.0 0.03 0.03 0.03 85 1019.2
20260831021017 25 315 1.6 6.4 0.03 0.03 0.03 85 1019.2
20260831020517 25 0.0 6.4 0.03 0.03 0.03 85 1019.2
20260831020017 25 338 1.6 6.4 0.03 0.03 0.03 85 1019.2
20260831015518 25 338 1.6 4.8 0.03 0.03 0.03 84 1019.1
20260831015017 25 338 1.6 3.2 0.00 0.00 0.00 84 1019.1